Wind_Speed
16 16 16 17 18 19 19 20 21 21 20 20 20 21 23 23 26 29 29 27 26 26 25 25 24 26 27 27 26 25 25 25 26 25 24 23 22 23 24 23 23 24 24 25 25 24 24 24 24 22 19 17 16 15 14 15 14 14 18 22 22 15 13 20 24 21 20 20 16 12 13 14 15 15 16 16 16 16 15 15 14 13 13 13 12 12
16 17 18 19 19 18 18 18 18 18 18 18 17 18 18 20 24 26 26 26 24 24 23 23 24 26 26 25 24 23 23 23 23 23 22 21 21 22 22 21 21 22 22 23 23 23 23 23 24 21 17 15 15 16 16 16 16 14 15 20 20 15 13 17 21 20 21 21 15 11 12 14 15 16 16 17 16 15 14 14 14 14 14 13 12 12
17 18 20 19 17 16 16 16 17 17 17 16 16 15 15 19 22 22 23 24 22 21 21 22 24 25 23 22 21 20 20 21 21 20 20 20 20 20 19 18 19 20 21 21 21 21 22 22 22 20 16 15 15 17 17 16 16 14 14 18 20 19 17 16 17 19 20 19 12 11 13 15 17 17 17 16 15 14 14 14 15 14 14 13 13 13
18 20 19 17 16 16 16 16 16 16 15 15 14 13 15 18 18 18 20 22 20 19 19 21 22 21 20 20 19 18 18 19 18 18 18 17 16 16 16 16 17 18 17 18 19 19 20 21 21 19 17 16 17 17 17 16 15 15 16 17 19 20 20 19 20 22 23 18 12 13 14 16 18 19 18 15 14 14 14 14 14 14 14 14 14 14
20 19 17 16 16 16 16 15 15 15 14 14 14 14 17 18 17 18 18 18 17 17 17 19 19 19 18 18 17 17 17 17 17 16 15 14 13 13 13 13 14 15 15 15 16 17 18 19 20 19 18 18 20 19 17 16 15 15 17 18 18 21 22 22 23 27 27 20 15 15 15 18 20 20 18 16 14 14 13 13 13 13 14 15 15 14
19 17 16 16 16 15 15 15 14 14 14 14 14 15 17 17 18 18 16 15 14 14 16 17 17 18 19 17 17 17 16 15 14 14 14 13 12 12 11 12 14 15 16 15 15 17 18 21 22 21 19 20 20 19 18 17 16 16 16 18 19 21 21 20 23 28 26 20 17 17 18 19 20 19 18 16 15 14 13 12 12 13 14 15 15 15
19 17 16 16 14 14 14 14 14 13 13 14 14 16 17 17 17 16 15 13 13 14 16 17 17 17 17 17 17 16 15 14 14 14 13 12 12 12 12 14 16 17 17 16 17 19 21 24 24 22 20 20 19 18 17 16 16 16 15 18 20 22 21 19 23 26 22 20 19 20 20 20 20 18 17 15 14 14 14 13 12 12 13 14 15 14
18 17 17 16 14 13 13 13 13 13 13 13 14 15 16 17 17 15 14 14 14 14 15 17 18 17 17 17 17 16 15 14 14 14 14 13 13 13 14 16 17 17 18 19 21 24 24 23 22 19 18 18 16 17 17 15 16 16 16 19 22 23 23 22 24 23 20 20 21 21 21 20 19 17 16 15 15 15 15 14 13 11 12 13 13 13
19 19 18 17 15 14 14 14 14 14 15 14 14 15 16 16 16 15 14 14 15 15 14 17 19 18 18 18 16 16 17 16 17 17 17 17 16 16 15 16 16 17 18 20 23 26 22 18 17 16 16 14 11 12 14 15 15 16 18 21 22 23 23 25 26 23 19 20 21 20 20 19 18 17 15 15 15 16 16 15 13 12 11 13 13 13
21 21 20 18 17 16 16 15 15 15 15 15 14 15 15 16 16 15 14 14 15 16 17 18 18 18 20 20 17 17 19 20 20 20 20 20 19 18 16 15 15 16 18 20 24 24 19 17 16 15 15 14 12 13 14 15 16 18 19 21 23 24 25 28 31 26 21 21 21 20 19 18 19 18 16 16 16 16 17 16 14 13 13 14 15 15
22 22 21 20 19 18 17 16 16 16 15 15 14 14 15 16 16 16 15 15 16 16 18 18 17 18 19 20 20 19 20 20 20 22 23 22 22 21 19 18 17 17 19 20 22 21 19 19 18 15 15 17 18 19 17 16 16 17 20 22 22 23 25 29 31 28 25 23 22 21 19 19 19 18 16 16 16 17 17 17 16 15 15 15 14 15
23 22 21 21 19 18 17 17 17 17 16 15 14 15 15 16 17 17 17 18 18 18 18 17 18 21 20 20 23 22 20 20 20 22 23 23 23 22 21 20 19 20 21 22 22 21 21 22 21 18 18 21 22 21 18 18 17 18 20 23 23 23 24 27 29 29 26 24 23 21 19 19 19 18 17 16 16 18 18 18 17 16 15 14 13 13
22 22 21 20 20 19 18 18 18 18 17 16 15 15 15 15 17 18 18 18 19 20 20 19 20 22 22 23 25 22 20 21 22 23 23 24 24 23 23 22 22 23 24 24 22 21 23 26 27 24 23 25 26 23 21 21 21 22 22 23 22 22 24 26 28 31 29 26 25 23 19 19 19 19 18 17 16 18 19 19 18 17 16 14 13 12
22 23 22 21 21 21 20 19 18 19 17 16 16 15 15 15 18 19 18 18 19 20 21 20 22 23 24 26 27 24 23 23 24 25 25 25 25 25 25 25 24 25 25 25 24 24 26 29 31 29 26 25 26 26 24 21 21 22 23 23 22 22 24 26 27 31 33 29 26 25 21 19 19 19 19 18 17 18 19 20 19 18 17 15 14 13
23 23 22 23 22 22 21 19 18 18 17 17 17 17 17 17 19 19 18 18 19 20 21 22 23 25 26 27 26 25 26 26 26 27 27 27 27 27 27 27 27 27 28 28 27 28 30 31 33 32 28 25 24 25 24 24 24 24 25 25 24 24 25 27 28 30 33 32 29 26 23 20 19 19 19 18 18 18 19 20 19 19 18 16 16 15
24 23 23 23 23 22 22 21 20 19 19 20 20 20 20 20 21 20 20 20 19 19 21 22 24 26 26 25 24 25 27 28 28 30 30 30 30 29 30 30 30 30 31 31 31 32 33 34 35 34 31 28 25 23 24 25 27 28 29 28 26 25 25 28 32 32 32 33 30 27 24 21 20 20 20 19 19 19 20 20 19 19 18 18 18 18
23 23 24 23 23 23 23 23 23 21 21 21 21 22 21 21 22 21 21 23 22 21 23 22 23 24 23 23 24 24 25 27 28 30 31 31 32 32 32 32 32 32 33 33 34 35 35 36 36 35 33 32 28 24 24 25 25 26 29 28 26 26 27 28 33 34 34 34 30 27 25 23 21 21 21 21 21 22 22 22 21 21 21 21 21 20
21 21 22 23 24 25 24 24 25 24 23 22 22 23 20 19 22 22 22 23 23 23 24 23 23 22 21 21 21 21 23 25 26 28 29 29 30 31 31 31 31 32 33 34 34 34 35 36 37 35 33 35 33 28 28 27 25 25 28 29 28 28 29 30 33 35 36 35 30 26 24 23 21 21 21 22 23 24 24 24 24 24 23 23 23 20
22 21 22 23 25 25 24 25 25 26 26 24 23 23 20 19 21 22 22 23 22 21 23 23 22 21 21 20 18 19 21 23 24 26 26 26 27 27 28 28 29 29 29 31 31 33 34 35 36 34 31 33 33 30 31 30 26 24 26 29 30 31 31 30 32 35 35 33 29 25 24 23 21 21 21 21 22 22 23 24 24 24 24 24 23 19
24 23 23 23 24 24 25 26 25 25 27 26 26 25 24 22 21 20 20 21 21 20 21 22 21 20 20 20 19 20 21 21 22 24 24 25 25 26 26 26 26 26 26 27 28 30 31 31 31 31 28 28 29 29 29 29 26 24 25 28 30 32 31 26 26 32 34 33 29 26 25 24 22 22 22 21 22 22 23 24 24 24 25 25 23 20
26 25 25 25 24 24 26 26 25 25 24 24 24 25 26 25 24 23 22 21 20 19 19 19 19 18 18 18 18 19 19 19 19 21 22 23 23 23 24 24 24 25 25 26 27 28 28 28 28 28 26 25 26 28 28 26 24 22 23 25 25 24 24 22 22 27 33 34 31 26 25 25 24 24 23 23 24 24 24 25 24 24 24 24 23 21
28 27 28 28 25 24 25 25 26 27 24 23 22 22 23 23 23 24 24 24 24 22 19 17 15 16 17 16 16 16 17 18 18 18 19 19 20 19 20 20 21 22 23 24 26 27 27 27 27 26 25 25 26 28 28 25 21 19 18 19 19 17 18 20 21 24 29 32 29 25 24 24 24 24 23 24 24 24 23 23 23 23 24 23 23 21
31 30 31 31 29 28 27 25 26 28 27 26 26 25 24 24 23 22 22 23 24 24 23 19 16 17 16 14 15 14 15 17 18 18 18 18 18 18 18 18 18 19 20 21 23 25 26 26 25 24 24 24 25 27 27 25 23 22 21 19 17 17 17 19 19 21 23 26 25 23 22 22 24 24 25 25 24 23 22 22 22 23 23 23 23 21
34 35 34 34 33 32 30 28 28 29 28 29 29 29 29 28 26 25 23 23 22 22 23 20 18 20 18 15 15 15 16 18 19 19 20 20 20 20 19 19 18 18 18 19 20 22 24 25 24 22 21 21 22 23 22 21 20 20 20 19 18 17 16 18 19 18 20 22 23 22 22 23 25 26 26 25 24 23 22 22 22 23 23 23 23 22
37 39 37 35 36 34 32 32 33 32 31 30 30 30 31 31 30 28 27 26 25 23 22 20 19 21 21 19 17 17 18 19 20 21 21 21 22 22 21 20 19 18 18 18 19 20 21 22 22 21 20 20 20 20 19 18 16 15 15 14 14 15 15 16 18 19 21 22 23 23 24 25 27 27 26 25 24 23 23 22 22 23 24 24 23 22
35 39 40 39 37 34 33 34 34 33 32 32 31 30 31 31 30 30 28 26 26 25 24 22 22 22 23 21 20 20 20 20 21 21 22 22 22 22 22 21 20 19 19 18 19 19 20 20 20 19 19 19 19 18 18 17 16 15 13 11 11 11 12 13 16 19 21 23 24 25 26 26 26 25 24 24 24 24 23 22 21 22 23 23 23 24
27 33 39 42 39 35 35 37 37 35 32 32 31 30 31 30 29 29 27 25 26 26 25 25 26 26 25 23 22 23 22 22 23 23 23 23 22 22 23 23 23 22 21 20 19 18 18 19 18 18 17 17 17 18 18 18 18 18 16 14 13 13 13 13 14 17 20 22 24 25 25 25 24 24 24 25 25 25 25 23 22 22 22 23 24 25
24 25 31 38 40 38 36 36 38 36 33 33 33 32 32 31 31 30 28 27 27 25 24 26 28 28 28 27 26 25 25 25 25 25 25 24 23 23 24 25 24 24 22 21 20 19 18 18 19 18 18 18 17 18 18 18 19 19 19 18 17 17 17 16 17 18 20 21 23 24 25 24 24 25 26 26 27 27 26 26 25 25 24 24 24 25
22 21 23 28 33 36 37 38 38 37 34 34 35 35 34 33 32 31 30 31 30 26 26 28 29 28 29 29 28 28 27 26 27 27 27 26 25 25 25 26 25 25 24 23 22 22 21 20 20 20 20 20 19 19 19 20 20 21 21 21 21 20 20 20 21 21 21 21 23 24 25 26 26 27 28 28 28 29 28 28 27 27 27 25 24 25
19 21 21 22 24 29 34 37 38 37 36 35 35 36 36 34 33 33 33 33 33 32 32 33 31 30 30 30 30 30 29 28 28 28 29 28 27 26 26 27 27 27 27 27 26 26 26 25 25 24 24 23 23 23 22 22 22 22 23 23 24 24 23 23 23 23 23 23 24 24 24 25 26 28 30 31 32 32 31 31 30 30 30 29 26 25
20 20 20 20 19 21 26 29 30 31 32 32 33 32 32 33 34 35 35 35 35 35 35 35 34 34 34 34 34 34 32 31 30 29 30 29 28 28 28 29 29 29 30 30 30 30 30 30 29 29 28 27 27 27 26 25 25 25 25 26 26 27 27 27 27 27 27 27 27 27 26 26 26 27 30 33 35 35 35 34 32 30 30 29 27 25
25 24 22 21 20 19 20 21 23 24 24 26 27 27 27 29 31 33 33 34 35 36 37 37 36 36 38 39 39 38 36 34 33 32 31 31 31 31 32 32 31 32 32 32 32 33 33 33 32 32 32 32 32 32 31 30 28 27 27 28 29 30 30 30 31 31 32 32 31 31 30 30 29 29 29 31 35 37 37 36 34 32 31 30 29 29
30 30 29 27 26 25 23 22 21 21 21 22 22 22 23 24 26 28 28 29 30 32 34 35 33 33 36 38 39 39 38 36 34 34 33 33 32 31 32 33 33 33 33 33 33 34 34 34 35 36 36 37 37 37 36 35 34 32 31 31 32 33 33 33 33 33 34 34 34 34 33 33 32 32 31 31 33 36 37 38 37 36 35 33 33 33
31 31 30 29 29 29 28 27 25 23 23 21 19 19 20 20 21 22 23 24 24 26 29 30 29 29 30 32 33 35 35 34 33 33 34 34 33 32 33 35 35 36 36 36 36 37 38 39 39 40 40 40 40 40 40 39 39 37 36 35 35 35 36 36 36 35 36 37 37 38 38 38 37 36 36 35 35 36 37 38 38 38 38 37 35 34
32 31 30 29 29 29 28 29 29 29 27 24 22 23 24 24 24 24 23 24 24 24 26 28 28 29 29 30 31 32 33 33 33 33 34 35 36 36 36 36 37 37 37 37 38 39 40 41 41 41 41 41 41 41 41 42 42 41 41 39 37 37 37 37 37 37 37 37 38 39 40 40 41 41 41 41 41 41 41 41 41 41 41 41 39 38
31 30 30 30 30 30 30 30 31 31 29 28 28 29 29 29 29 29 29 29 28 29 29 29 30 31 31 32 33 34 34 35 35 36 37 37 38 39 39 38 38 38 37 38 39 39 38 38 39 40 41 41 40 40 41 41 42 41 41 39 38 37 37 38 38 37 36 35 36 38 39 40 41 42 43 44 44 45 45 45 45 44 44 44 44 44
32 32 31 30 31 31 31 31 31 31 31 32 32 31 31 31 31 31 32 33 33 34 34 34 35 35 35 36 36 37 38 39 40 40 41 41 42 42 43 42 40 38 36 36 36 35 33 33 33 33 35 36 37 38 38 38 39 39 38 37 36 35 35 36 36 36 35 34 34 34 34 34 35 36 37 39 41 43 44 45 46 46 45 45 46 47
31 32 32 31 32 32 32 33 33 34 35 35 33 33 33 33 34 35 36 36 37 38 38 38 38 38 39 39 39 40 40 41 42 42 42 42 43 44 44 44 43 42 41 40 39 38 36 34 32 31 31 31 30 32 33 34 35 36 37 36 34 32 33 33 34 34 35 35 35 35 35 34 33 33 34 35 36 38 40 41 43 44 45 45 46 46
32 32 32 32 33 33 33 34 35 37 38 37 35 34 34 35 35 36 37 38 39 39 39 39 40 40 40 40 40 40 40 41 42 41 42 42 42 43 44 45 46 47 47 46 47 47 47 45 44 42 42 40 37 36 34 33 32 32 34 35 36 37 38 38 38 38 37 36 36 37 37 37 37 37 37 37 37 38 38 39 40 40 41 42 43 44
35 35 35 34 34 35 35 35 38 39 39 38 37 36 35 35 35 36 37 38 38 37 37 38 38 39 39 40 40 40 41 41 40 40 41 42 42 43 44 45 46 47 47 47 48 50 51 51 51 52 52 52 51 49 47 44 41 38 37 39 41 41 42 41 42 43 42 42 41 41 41 41 41 42 42 41 39 39 39 41 41 40 39 40 41 41
37 38 38 37 36 36 36 37 40 41 40 40 40 40 38 37 37 37 38 37 36 36 36 37 38 38 39 40 40 40 41 42 40 40 41 42 42 43 43 44 45 46 46 47 47 48 50 51 52 53 54 54 54 54 54 55 54 50 46 45 45 45 44 45 45 47 47 48 49 48 48 47 46 45 45 44 41 40 41 42 43 41 39 39 40 40
36 37 38 39 39 40 40 40 41 42 41 41 41 42 41 41 41 41 40 39 37 38 38 38 38 39 39 40 41 41 42 42 42 42 42 42 43 43 44 45 46 46 47 47 48 48 49 50 51 52 53 54 54 54 55 56 57 57 54 51 49 48 47 45 45 46 48 49 50 50 50 51 51 50 50 49 49 48 48 48 49 47 45 44 43 41
36 35 34 35 38 40 40 41 42 43 43 43 42 42 42 42 42 42 41 39 39 40 41 41 41 41 41 42 43 43 44 44 44 44 44 44 45 45 46 46 47 48 49 49 50 50 51 51 52 53 53 54 54 55 56 57 58 58 58 56 53 52 50 48 47 47 49 50 50 50 51 53 55 55 54 53 53 53 53 52 53 54 54 53 50 48
35 34 31 30 34 36 35 35 37 39 41 41 41 42 41 41 42 42 41 39 39 39 41 42 42 42 43 44 45 45 46 46 46 47 47 47 48 48 48 49 50 51 52 52 53 54 54 55 55 55 56 56 56 56 56 57 58 59 59 59 58 56 55 55 54 53 54 55 55 55 56 58 58 58 57 55 54 53 52 51 51 52 53 54 54 53
34 35 33 32 34 35 34 33 34 35 37 38 39 40 40 40 40 40 40 39 39 39 40 41 41 42 42 43 43 44 45 45 46 47 48 48 49 49 50 50 51 52 52 53 54 55 56 56 56 56 56 56 57 57 57 58 59 59 59 60 59 59 58 57 57 57 57 57 58 58 58 58 58 58 58 58 57 56 55 54 52 51 51 52 53 54
29 31 32 33 34 34 35 35 35 36 36 37 37 38 38 38 38 38 38 38 38 39 39 39 40 40 40 41 41 42 42 43 43 44 45 46 47 48 48 48 48 49 49 49 50 51 51 51 51 51 52 53 53 54 54 55 55 56 56 57 58 58 57 56 55 55 55 55 55 55 54 54 54 54 55 55 56 56 55 54 54 53 52 52 53 54
21 23 26 28 29 31 32 33 34 34 35 35 35 35 35 35 34 34 34 34 34 35 36 37 38 39 40 41 41 41 41 42 42 43 44 44 45 46 46 46 46 47 47 47 48 49 50 50 51 51 52 52 53 53 53 54 54 55 55 56 56 57 56 55 55 55 54 55 55 55 55 55 55 55 55 55 54 54 54 54 53 53 53 54 54 54
16 17 19 21 23 24 26 28 29 30 30 31 32 32 32 33 33 32 32 32 31 31 32 33 34 35 36 36 37 38 39 39 40 41 42 43 44 44 45 45 46 48 49 49 51 52 53 54 54 54 55 55 56 56 57 57 58 58 59 59 59 59 58 58 58 58 58 59 59 59 59 59 59 59 59 59 59 58 58 57 57 56 56 55 55 56
14 15 15 16 17 19 20 21 22 24 25 26 27 28 29 30 31 32 32 33 33 33 34 34 34 35 35 36 36 37 38 38 39 40 42 43 45 46 48 49 50 51 52 53 54 55 56 56 56 57 58 58 59 60 60 61 61 62 62 63 63 63 63 63 64 64 65 65 65 65 65 65 65 65 65 65 65 64 63 62 61 60 60 58 57 57
14 14 14 14 15 16 16 16 17 19 20 20 21 23 24 25 26 28 29 30 32 33 35 37 38 39 40 41 42 43 43 43 43 44 45 46 47 48 50 52 52 53 53 53 54 55 56 57 59 60 61 62 63 64 65 66 66 67 68 68 69 69 70 70 70 70 70 70 70 69 69 69 68 68 68 68 68 68 67 66 65 64 64 63 61 61
13 13 14 15 15 15 15 15 16 17 18 18 18 20 21 22 23 24 25 27 28 29 31 33 35 37 39 41 43 45 46 48 49 50 51 51 52 52 53 54 55 56 56 57 57 58 60 62 64 65 67 68 69 69 69 70 70 70 70 71 71 72 72 72 71 70 70 69 69 68 67 66 66 66 65 65 66 66 66 66 65 65 65 65 64 65
Wind_Direction
225 226 226 227 227 227 226 227 229 232 232 231 231 231 231 229 230 234 237 237 236 237 239 239 240 240 240 239 239 239 240 241 244 247 248 249 248 248 247 247 248 250 252 255 258 261 264 268 270 272 272 269 268 261 254 251 244 251 256 236 221 224 229 229 229 224 221 218 220 232 231 231 237 239 241 241 242 244 246 250 254 258 262 264 267 270
224 224 224 225 228 230 231 231 232 232 231 230 229 231 232 232 233 236 238 239 238 238 238 237 237 239 240 241 241 241 242 244 245 246 246 244 242 243 244 244 246 249 251 255 259 262 264 267 269 270 268 260 250 243 239 236 238 248 242 222 215 219 224 226 225 222 214 207 218 239 231 228 232 232 235 236 238 244 249 255 258 260 263 265 268 270
222 224 225 228 231 234 236 234 234 232 230 228 228 229 230 232 236 240 240 241 239 236 235 234 236 239 240 240 240 239 239 241 242 242 241 240 240 241 242 241 244 248 251 256 260 263 265 267 268 266 257 244 233 231 230 225 230 235 224 217 216 216 223 225 217 213 205 201 223 250 237 232 233 233 233 234 239 246 252 257 260 264 267 269 271 271
223 225 226 228 229 230 233 234 235 235 232 228 226 225 229 233 235 239 241 240 238 234 231 231 234 237 238 238 237 235 235 236 237 238 238 239 241 241 240 238 242 248 253 258 261 262 264 265 264 260 245 231 224 221 220 216 218 221 215 214 216 219 223 217 207 207 208 214 244 254 238 233 234 235 236 236 239 244 250 256 261 266 269 270 271 270
225 226 225 226 227 229 232 235 236 237 235 230 225 222 229 234 231 233 239 239 237 231 225 228 232 236 237 236 235 233 233 234 235 238 240 241 241 239 238 237 242 250 253 255 257 257 257 258 256 249 235 225 221 216 212 209 206 208 208 214 226 226 217 207 205 210 217 232 251 246 237 236 236 237 237 238 240 243 248 254 260 264 266 267 266 266
227 225 223 225 227 229 230 233 234 235 236 232 226 222 228 233 231 233 237 236 235 228 222 223 225 231 236 235 235 235 233 234 236 241 244 241 239 236 233 235 242 248 250 248 246 246 248 250 248 241 230 220 217 214 209 205 202 201 206 220 230 221 210 208 211 213 221 237 245 242 239 237 236 236 236 238 242 245 249 253 257 260 263 263 263 264
228 225 225 226 227 229 230 233 232 231 233 232 227 225 226 231 232 233 231 228 227 223 220 219 217 223 230 232 236 238 236 237 239 242 243 236 232 231 229 235 240 243 245 240 236 240 243 244 246 245 236 224 217 212 206 203 203 203 212 227 224 214 215 220 220 220 225 235 239 239 238 234 234 234 234 238 243 248 251 252 255 258 260 262 260 262
231 230 229 229 228 229 230 231 229 226 225 225 226 225 226 230 233 233 228 224 224 223 220 218 219 224 229 231 234 238 239 240 241 238 235 228 225 229 233 235 237 238 238 235 235 238 242 251 258 255 241 227 217 213 209 207 210 211 222 228 221 218 222 221 224 230 231 233 238 238 237 237 235 234 235 241 246 249 251 250 253 256 259 262 261 262
231 231 230 228 227 227 228 228 227 223 222 224 226 226 227 231 234 234 230 228 229 230 226 223 224 227 230 231 231 235 238 236 236 233 227 224 224 232 239 236 234 233 232 235 237 238 249 276 285 269 248 228 214 218 220 220 222 224 230 230 224 225 228 226 233 241 237 235 238 238 240 241 238 236 236 240 246 249 248 247 247 250 254 257 260 262
229 230 230 228 227 226 227 229 229 227 226 228 229 228 229 232 235 236 232 233 234 231 229 229 228 224 226 233 232 230 233 229 227 229 228 228 231 238 243 241 238 236 236 240 242 245 266 293 290 280 269 247 242 255 246 230 228 229 234 236 230 231 236 235 235 237 233 232 236 237 240 242 240 238 236 238 243 245 243 240 239 241 248 255 259 262
233 232 232 230 229 229 229 231 233 233 232 234 234 232 233 233 235 237 233 234 236 234 233 232 232 227 224 235 236 229 231 230 225 228 232 235 240 244 247 247 247 246 245 246 250 262 282 288 280 280 275 257 256 267 256 233 229 232 237 241 240 240 239 232 229 231 229 227 231 236 238 239 240 239 239 241 241 239 236 233 234 240 250 259 265 267
237 236 236 235 234 233 234 235 235 237 236 236 237 237 238 237 237 237 235 235 236 237 236 231 231 232 226 233 240 235 233 235 232 233 238 242 246 248 250 251 252 253 253 253 260 275 287 284 278 275 269 260 257 260 251 242 245 246 242 240 241 245 239 231 234 237 234 229 229 235 239 239 241 243 243 244 240 236 234 232 237 247 256 266 272 272
240 241 241 241 240 238 237 238 239 240 238 236 236 234 235 236 236 234 234 236 236 236 238 234 234 238 231 231 240 241 237 237 240 242 244 247 249 250 251 252 254 256 257 258 264 278 284 281 280 283 283 275 266 261 254 252 256 254 247 238 238 245 245 243 246 241 237 236 234 232 237 238 240 245 246 244 240 235 233 235 242 252 261 270 274 272
239 240 241 241 242 241 239 239 242 245 245 242 239 234 230 232 237 237 233 236 237 236 241 241 240 243 241 238 242 246 245 242 243 246 248 250 251 251 251 252 254 257 260 262 265 273 277 279 282 287 290 285 277 271 265 261 261 255 244 235 241 256 257 253 251 241 236 239 238 232 231 234 237 243 245 242 238 236 235 239 247 257 264 267 267 264
232 237 241 242 243 243 241 240 240 245 249 245 238 234 229 229 236 238 235 237 240 240 243 244 243 243 244 245 245 247 249 248 248 248 249 250 251 251 252 253 254 257 260 262 265 268 271 274 279 281 282 281 278 274 266 263 267 261 245 240 251 265 264 257 254 246 236 234 238 236 231 230 233 235 238 238 237 238 240 243 252 260 264 262 258 260
232 235 239 241 241 242 243 241 238 239 244 246 245 241 235 231 236 239 239 239 239 241 244 244 245 245 247 251 251 248 249 249 249 249 250 251 252 252 252 253 255 257 259 261 263 266 268 270 273 275 275 274 274 270 261 260 266 263 251 248 256 261 261 257 254 248 235 228 233 238 232 228 227 228 233 237 239 241 243 246 252 256 257 255 255 264
234 237 240 240 240 240 241 242 241 237 237 243 248 248 241 237 239 241 244 245 243 245 249 248 250 252 251 252 251 248 248 248 247 248 249 250 251 251 251 252 253 255 257 260 262 264 267 268 270 271 268 267 269 268 262 261 264 261 252 251 255 256 256 256 253 246 233 226 230 237 233 226 224 226 231 236 241 244 246 247 247 248 250 252 258 266
232 236 239 236 237 239 239 242 244 241 237 237 243 248 246 244 244 242 243 247 247 248 251 250 251 254 252 250 248 245 244 245 245 246 247 248 249 250 251 252 253 255 257 259 261 262 264 265 267 267 264 263 264 267 268 266 265 264 259 256 256 254 253 256 254 242 229 224 229 237 235 228 226 228 230 236 241 244 245 243 241 242 247 253 260 265
227 230 235 234 234 236 236 237 242 244 242 236 237 242 241 242 247 245 242 247 250 251 252 252 251 251 250 248 244 238 236 238 240 242 243 246 248 249 251 253 254 255 256 258 259 260 261 263 264 266 265 262 260 263 268 264 260 265 264 258 254 249 249 257 252 235 222 220 228 236 234 229 228 229 230 234 238 239 239 237 238 242 249 255 260 261
226 225 231 233 233 233 233 234 236 242 246 241 237 238 236 235 240 243 243 244 248 250 253 254 252 248 245 242 239 236 234 233 234 237 240 243 246 247 249 250 250 251 251 253 254 256 258 260 262 264 266 266 264 266 270 265 259 262 262 259 254 246 243 247 240 226 218 221 230 235 232 228 227 227 228 231 234 235 238 240 242 247 251 254 257 259
227 225 227 231 233 232 233 234 232 234 241 242 240 239 239 238 238 242 243 241 242 244 249 252 250 246 240 235 234 235 234 233 234 237 239 243 245 247 247 248 248 248 248 248 250 253 256 259 262 264 265 268 269 270 274 271 262 260 260 260 258 247 236 231 229 226 225 230 234 232 228 226 225 226 229 232 234 236 240 244 246 248 249 251 254 255
228 227 226 230 232 231 231 233 232 233 233 234 236 237 239 239 238 240 243 243 242 241 242 245 246 245 237 228 227 228 229 232 235 237 240 243 246 247 248 249 251 252 251 250 251 253 257 261 266 270 270 269 269 269 273 275 269 267 268 263 261 254 239 231 229 228 229 232 229 220 218 221 223 227 232 233 233 234 237 241 243 246 248 250 250 251
230 227 226 228 229 229 233 232 233 236 234 232 234 235 234 234 233 234 239 244 244 241 240 239 239 241 235 224 225 226 226 230 233 235 238 241 244 245 247 248 250 253 253 254 255 256 260 264 268 274 275 274 273 273 275 278 276 276 276 272 267 261 247 234 228 222 221 221 217 214 217 220 222 226 229 229 230 230 232 237 241 244 246 248 248 250
232 228 228 230 229 230 234 233 233 236 236 235 236 235 234 234 234 234 237 241 242 239 236 235 235 237 233 225 227 227 226 230 232 234 238 241 245 248 249 250 250 252 253 254 256 258 261 265 267 271 273 273 274 275 276 277 276 274 273 270 265 259 246 235 229 224 220 219 220 223 225 222 221 224 226 227 228 228 232 237 240 243 245 247 250 253
235 231 230 230 229 230 232 232 233 235 234 235 237 237 236 237 238 239 239 240 240 237 235 234 236 239 235 232 233 232 230 232 234 237 240 243 247 251 253 256 255 256 257 256 258 261 265 269 272 274 276 277 278 278 277 276 272 269 268 263 256 250 242 234 231 231 230 228 228 228 225 221 221 223 225 227 229 232 236 238 240 243 245 248 251 252
240 236 231 228 226 227 230 230 231 233 235 237 238 239 239 238 238 239 238 238 239 237 236 234 235 239 239 235 236 237 236 235 235 238 241 244 248 250 253 256 258 260 262 262 263 265 268 273 278 280 280 280 279 279 278 277 273 269 265 258 248 241 236 230 227 227 228 228 227 226 224 223 223 225 228 230 233 236 239 240 241 243 246 248 249 249
245 240 235 232 228 224 227 231 230 231 234 236 235 235 235 235 234 233 232 233 236 237 237 236 235 237 239 237 236 238 239 238 238 239 241 244 247 249 252 254 257 261 265 266 265 264 264 267 271 274 275 274 274 275 276 276 274 273 270 263 252 243 238 233 227 222 222 224 225 225 225 226 227 230 232 235 237 239 241 241 241 241 243 244 244 244
249 247 242 239 235 229 229 232 233 232 231 231 233 232 230 231 230 228 228 229 233 235 236 239 237 237 239 238 236 238 240 241 242 242 243 245 248 251 253 254 256 260 263 265 265 263 261 261 263 266 267 268 269 271 272 273 272 272 271 266 258 252 247 243 239 232 226 225 226 227 227 229 231 233 235 237 239 240 242 242 240 238 237 237 238 238
249 249 246 243 242 239 237 236 236 237 233 231 232 231 229 229 229 230 230 232 233 231 232 237 239 239 242 241 240 241 243 244 245 244 243 246 250 253 255 255 256 257 258 260 262 262 262 262 262 263 265 268 270 270 270 271 272 272 270 266 262 258 254 251 248 245 239 235 233 233 233 234 236 237 238 239 240 241 242 242 240 236 233 232 233 236
246 245 243 244 244 241 236 233 234 236 234 233 233 231 229 229 230 232 233 236 237 235 236 241 243 243 244 245 245 245 246 246 247 245 244 245 249 253 255 255 255 255 256 257 260 262 264 265 266 267 267 269 271 272 271 269 269 269 268 265 262 259 257 254 251 249 246 242 240 240 242 243 243 243 243 242 242 243 243 243 241 237 233 233 236 240
240 241 240 241 242 236 230 229 231 233 234 233 233 234 233 234 235 234 234 236 238 239 241 244 247 247 248 247 247 246 246 247 247 245 244 246 248 251 252 253 253 254 255 257 259 262 264 266 268 270 271 272 272 272 271 269 266 264 262 261 259 257 256 255 252 251 251 250 249 248 248 249 250 251 250 247 245 244 244 243 242 241 241 241 244 249
244 247 249 251 253 246 236 233 233 235 236 235 234 235 236 236 237 237 237 238 240 241 242 244 247 250 250 249 247 245 244 243 243 243 244 246 249 253 254 254 254 254 255 257 259 261 264 266 269 271 272 273 273 272 271 269 266 263 259 257 256 254 253 252 252 252 253 254 255 255 254 253 252 253 253 252 249 247 245 243 241 242 246 248 250 253
251 252 255 259 261 258 252 247 243 239 238 238 239 239 237 236 236 238 240 242 243 243 242 242 244 247 248 248 246 243 240 238 238 239 242 246 251 257 260 259 257 256 256 257 258 260 262 265 268 270 271 271 271 271 271 270 269 266 262 258 255 253 251 251 251 252 253 255 256 257 257 256 253 252 252 253 251 249 247 245 242 242 246 251 252 251
256 256 258 260 260 258 257 256 253 246 241 240 244 247 246 244 242 241 242 242 242 240 239 240 241 241 243 245 244 242 240 238 238 239 241 245 249 255 260 263 262 261 261 261 262 263 265 267 268 269 269 269 269 269 269 269 269 268 266 262 258 254 252 252 253 255 256 257 257 257 256 256 254 253 251 250 249 250 250 249 247 246 249 254 253 249
258 258 258 257 255 253 253 254 254 251 248 251 255 256 256 256 253 251 249 247 245 241 237 237 237 237 238 240 241 241 241 241 242 243 245 246 248 250 256 263 266 267 267 266 265 265 266 267 268 269 268 268 268 268 268 268 268 268 267 266 263 259 258 258 259 259 258 257 256 255 255 254 253 251 250 248 247 248 250 251 251 250 252 254 252 250
256 256 255 253 254 255 256 258 257 254 254 258 259 256 256 257 257 255 255 254 252 249 245 242 240 240 240 241 241 243 244 245 246 248 249 250 251 251 253 258 262 265 268 268 266 264 264 266 268 270 271 270 269 269 269 268 268 267 266 265 264 264 264 264 263 261 258 255 253 252 251 250 249 248 248 248 248 249 250 252 253 254 254 254 253 252
252 254 254 254 255 257 260 261 260 259 259 259 259 260 259 259 259 257 256 255 254 253 252 251 250 250 250 250 250 250 251 252 252 253 254 254 255 256 257 258 258 259 261 262 259 260 265 269 272 273 272 274 275 274 272 269 265 264 264 263 263 264 264 264 262 258 254 251 250 249 247 246 247 248 249 250 250 251 252 253 254 255 255 256 256 256
248 249 252 254 254 255 258 260 261 263 262 261 262 263 262 261 260 260 258 257 256 255 255 254 254 255 255 256 256 256 256 256 255 255 256 256 256 256 257 257 257 257 257 256 253 253 256 260 261 259 257 261 267 269 268 265 261 260 260 258 258 260 262 263 263 259 254 250 248 247 246 247 249 252 254 254 254 254 254 254 255 256 257 258 259 259
248 248 249 252 253 255 257 259 260 261 262 262 263 264 263 261 260 260 260 259 258 258 259 259 258 258 258 257 257 256 256 256 255 255 256 255 255 255 255 255 255 255 254 253 252 252 253 253 252 250 249 251 253 255 255 253 252 255 257 257 259 262 264 265 265 263 258 252 248 247 247 251 255 258 260 260 260 259 259 258 258 258 259 258 258 258
252 253 253 253 255 256 258 258 259 259 261 263 264 264 263 262 261 260 260 260 260 261 262 260 259 259 257 257 256 256 256 256 256 256 255 254 254 253 252 252 252 252 251 250 249 250 251 252 252 252 252 253 254 254 253 252 253 257 261 263 265 267 267 266 265 263 259 256 254 252 253 255 259 262 263 264 263 262 261 260 260 259 258 257 257 256
252 253 253 254 255 256 257 258 259 260 261 262 263 264 263 262 261 260 261 261 262 262 261 260 259 258 258 257 257 256 256 257 256 255 254 253 253 252 251 251 251 251 251 250 250 249 250 251 252 253 254 255 255 254 254 254 256 258 260 262 264 266 266 265 264 262 260 259 259 259 259 259 261 262 263 262 261 259 259 259 258 255 255 256 256 254
250 250 251 251 250 251 252 254 256 258 259 259 261 262 262 261 260 260 262 262 261 260 259 258 257 257 258 257 257 257 257 256 256 255 254 254 253 253 252 252 252 252 252 253 253 252 252 252 252 253 254 255 255 255 254 254 256 257 258 260 262 264 264 263 262 261 261 262 262 262 263 264 264 265 265 263 260 260 260 259 257 255 257 259 259 256
249 249 249 249 248 248 249 250 251 253 255 256 257 259 260 260 260 261 261 261 260 260 260 258 258 258 258 257 257 257 257 257 257 256 255 255 254 254 253 253 253 254 254 254 255 255 255 255 255 255 255 255 255 255 255 255 256 258 259 260 261 262 262 262 261 261 261 263 263 263 264 266 268 269 268 266 265 264 263 262 259 257 259 261 261 259
251 250 249 249 249 247 247 248 249 250 252 253 254 255 257 258 259 260 259 258 257 258 258 258 258 258 258 258 258 258 257 257 257 257 256 256 255 255 254 254 254 254 254 255 255 256 256 256 256 257 257 257 257 256 256 256 256 258 260 261 262 262 262 261 261 260 261 261 262 263 264 267 268 269 268 268 268 267 266 265 263 260 259 259 259 258
252 251 250 251 251 250 249 249 250 251 252 252 253 254 256 257 258 259 259 258 257 257 257 259 260 260 260 259 259 259 259 259 258 258 257 257 256 256 255 255 255 255 255 255 256 256 256 257 258 258 258 259 259 259 258 258 258 258 259 260 261 261 261 261 261 261 261 262 262 263 264 266 267 267 267 267 267 267 267 266 265 264 262 260 259 258
253 253 253 253 253 253 253 253 253 254 255 256 257 258 258 259 259 259 260 260 260 259 260 260 261 262 261 261 260 260 259 259 259 258 257 256 255 255 254 253 253 253 254 255 256 256 255 255 255 255 256 256 257 257 257 257 257 258 258 259 260 261 261 262 262 262 263 263 264 264 265 266 266 266 266 266 266 267 267 266 266 265 264 262 261 260
255 255 255 255 255 255 256 256 256 256 257 258 259 260 260 261 261 261 262 262 262 263 263 263 263 263 263 263 263 262 261 259 258 257 256 255 254 253 253 254 253 253 254 254 255 254 252 250 249 249 250 250 251 252 253 253 254 255 256 258 260 261 262 262 263 263 264 264 265 265 266 266 266 266 266 266 265 265 266 266 266 265 265 265 264 263
258 258 257 257 257 258 258 258 258 258 258 258 259 259 259 259 258 258 259 259 258 258 260 261 262 262 262 263 263 262 262 261 259 257 256 255 254 254 254 254 254 254 254 254 254 253 251 250 250 251 252 253 254 255 255 256 257 258 259 260 261 262 263 263 264 264 264 265 265 265 265 265 265 265 264 264 264 264 264 264 265 265 265 265 265 264
261 261 260 260 260 260 261 261 261 261 260 260 259 259 259 259 259 258 258 257 255 252 251 251 251 250 251 252 253 253 253 254 253 253 253 252 252 253 253 251 250 249 249 249 250 252 252 252 253 256 259 260 260 260 260 261 261 262 263 263 263 264 264 265 265 265 266 266 266 266 266 266 266 265 264 264 263 263 263 263 263 263 263 263 263 263
264 264 263 263 262 262 263 264 264 263 263 262 261 261 261 260 260 260 259 259 258 257 255 253 252 251 251 251 251 252 252 251 251 251 251 251 251 251 250 250 249 248 248 248 248 250 252 255 259 262 263 264 264 265 265 265 266 266 266 266 265 265 266 266 267 267 267 267 267 267 267 267 267 266 265 265 264 264 264 264 263 263 262 261 260 260
266 266 265 264 264 265 265 264 264 264 264 263 262 262 262 262 262 262 262 262 262 262 262 261 260 259 258 257 257 257 257 257 256 256 257 258 258 257 256 255 254 255 255 256 256 257 259 262 264 265 265 266 266 266 266 266 267 267 267 266 266 265 266 266 267 267 267 267 267 267 266 266 265 265 264 264 264 264 264 264 263 263 262 261 260 259
Height
5735 5736 5737 5738 5738 5739 5740 5741 5742 5743 5745 5747 5749 5750 5752 5754 5755 5755 5755 5757 5759 5760 5762 5763 5764 5764 5764 5766 5767 5768 5769 5770 5771 5772 5773 5773 5774 5774 5774 5775 5775 5776 5777 5777 5778 5779 5780 5780 5780 5781 5782 5782 5782 5782 5782 5782 5781 5780 5777 5774 5774 5778 5779 5779 5780 5782 5783 5784 5785 5785 5785 5786 5787 5787 5788 5788 5788 5789 5789 5789 5789 5789 5789 5789 5790 5790
5733 5734 5735 5735 5736 5737 5738 5740 5741 5742 5744 5745 5747 5748 5750 5752 5752 5752 5753 5755 5757 5758 5760 5760 5761 5761 5762 5763 5765 5766 5767 5768 5768 5769 5770 5771 5771 5772 5772 5773 5773 5774 5775 5775 5776 5777 5777 5778 5778 5778 5779 5779 5779 5779 5779 5779 5778 5777 5777 5776 5777 5778 5777 5777 5777 5779 5780 5782 5783 5784 5784 5785 5785 5786 5786 5787 5787 5787 5787 5787 5787 5787 5787 5788 5788 5788
5731 5732 5732 5733 5735 5736 5737 5738 5739 5740 5742 5743 5745 5747 5748 5749 5749 5750 5751 5752 5754 5756 5757 5758 5758 5758 5760 5761 5762 5763 5764 5765 5766 5767 5767 5768 5769 5770 5771 5771 5771 5772 5773 5774 5774 5775 5775 5775 5775 5775 5776 5776 5776 5776 5776 5776 5776 5775 5774 5774 5775 5776 5776 5776 5776 5777 5779 5780 5781 5783 5783 5783 5784 5785 5785 5785 5785 5785 5785 5785 5785 5786 5786 5786 5786 5786
5729 5729 5730 5732 5733 5734 5735 5736 5737 5739 5740 5742 5743 5745 5745 5746 5747 5748 5749 5750 5752 5754 5755 5755 5756 5756 5758 5759 5760 5761 5762 5763 5764 5764 5766 5767 5768 5768 5769 5770 5770 5770 5771 5772 5772 5773 5773 5772 5772 5772 5772 5772 5772 5772 5773 5773 5774 5773 5773 5772 5772 5772 5772 5773 5774 5775 5777 5778 5779 5780 5781 5782 5783 5783 5783 5783 5784 5784 5784 5784 5784 5784 5784 5784 5785 5785
5726 5727 5729 5730 5731 5732 5733 5735 5736 5737 5738 5740 5741 5743 5743 5743 5745 5746 5746 5748 5750 5752 5753 5753 5754 5755 5756 5757 5758 5759 5760 5761 5762 5763 5764 5765 5766 5767 5768 5768 5769 5769 5770 5770 5770 5770 5770 5770 5769 5769 5768 5768 5768 5768 5769 5771 5771 5772 5773 5772 5770 5768 5767 5770 5772 5773 5774 5776 5777 5778 5779 5780 5781 5781 5782 5782 5782 5782 5782 5782 5782 5782 5782 5783 5783 5784
5724 5726 5727 5728 5729 5731 5732 5733 5734 5736 5737 5738 5739 5740 5740 5741 5743 5744 5745 5747 5748 5750 5751 5752 5753 5753 5754 5755 5756 5757 5758 5759 5761 5762 5762 5764 5765 5766 5767 5767 5767 5767 5768 5769 5768 5768 5767 5766 5764 5763 5763 5763 5764 5765 5767 5769 5770 5772 5772 5771 5769 5767 5766 5769 5771 5771 5773 5774 5775 5776 5777 5778 5779 5779 5779 5779 5780 5780 5780 5780 5780 5780 5781 5782 5782 5782
5722 5724 5725 5726 5728 5729 5730 5731 5733 5734 5735 5736 5737 5738 5739 5739 5741 5742 5744 5746 5747 5748 5749 5750 5752 5752 5752 5753 5754 5756 5757 5758 5759 5760 5761 5762 5763 5764 5765 5765 5766 5766 5766 5766 5766 5765 5763 5760 5759 5760 5761 5761 5762 5764 5766 5768 5770 5771 5772 5771 5769 5767 5767 5768 5768 5768 5771 5772 5772 5774 5775 5776 5776 5777 5777 5777 5777 5778 5778 5778 5779 5779 5780 5780 5781 5781
5720 5722 5723 5724 5726 5727 5729 5730 5731 5732 5733 5734 5735 5736 5737 5738 5739 5740 5742 5744 5745 5746 5747 5749 5750 5751 5750 5751 5753 5754 5756 5757 5758 5758 5760 5761 5762 5762 5763 5763 5763 5764 5763 5763 5762 5760 5759 5759 5760 5761 5762 5761 5762 5764 5766 5768 5769 5771 5772 5770 5769 5767 5766 5767 5767 5766 5768 5769 5770 5772 5773 5774 5774 5774 5775 5775 5775 5776 5776 5777 5778 5778 5779 5779 5780 5780
5718 5719 5720 5722 5724 5725 5726 5727 5729 5730 5731 5732 5733 5734 5735 5736 5737 5739 5741 5742 5743 5744 5746 5747 5748 5750 5750 5749 5751 5753 5754 5755 5756 5757 5758 5759 5760 5760 5760 5761 5761 5761 5761 5760 5758 5757 5759 5760 5761 5762 5763 5763 5764 5765 5766 5767 5769 5770 5770 5769 5769 5768 5766 5766 5765 5765 5766 5767 5769 5770 5771 5772 5773 5773 5773 5773 5773 5774 5774 5775 5776 5777 5778 5778 5778 5779
5715 5716 5718 5720 5721 5723 5724 5725 5726 5728 5729 5730 5731 5733 5734 5735 5736 5737 5739 5741 5741 5743 5744 5744 5746 5748 5748 5748 5749 5751 5751 5752 5754 5755 5756 5757 5758 5758 5759 5759 5759 5759 5759 5758 5756 5757 5759 5760 5760 5761 5762 5763 5764 5764 5765 5766 5767 5768 5767 5766 5766 5766 5765 5763 5762 5762 5764 5765 5766 5767 5769 5770 5771 5771 5771 5771 5772 5772 5772 5773 5774 5775 5776 5776 5777 5777
5712 5714 5716 5717 5719 5720 5722 5723 5724 5725 5727 5728 5730 5731 5732 5733 5734 5736 5737 5738 5739 5741 5741 5742 5743 5746 5747 5747 5747 5748 5749 5750 5752 5753 5754 5755 5756 5757 5757 5757 5757 5757 5756 5756 5756 5756 5757 5757 5758 5759 5759 5760 5761 5761 5762 5764 5765 5766 5765 5764 5763 5762 5762 5761 5760 5760 5761 5762 5764 5765 5766 5768 5769 5769 5770 5770 5770 5770 5771 5772 5772 5773 5774 5774 5775 5775
5710 5712 5713 5715 5716 5718 5720 5721 5722 5723 5725 5726 5728 5730 5731 5732 5733 5734 5735 5736 5737 5739 5739 5740 5741 5743 5745 5746 5744 5745 5746 5748 5750 5751 5752 5753 5754 5755 5755 5755 5755 5754 5753 5754 5755 5755 5755 5754 5755 5756 5756 5756 5756 5757 5759 5761 5762 5763 5762 5761 5760 5760 5760 5760 5760 5761 5760 5760 5761 5763 5765 5766 5767 5768 5769 5769 5769 5769 5769 5770 5771 5771 5772 5773 5773 5773
5708 5710 5711 5712 5714 5716 5717 5719 5720 5721 5723 5725 5726 5728 5729 5730 5731 5732 5733 5733 5735 5736 5736 5737 5738 5740 5742 5742 5741 5742 5744 5746 5747 5748 5750 5751 5752 5752 5753 5753 5753 5752 5751 5751 5753 5754 5752 5750 5750 5753 5755 5755 5754 5754 5756 5758 5759 5760 5760 5759 5758 5758 5758 5757 5758 5760 5761 5760 5760 5761 5763 5764 5766 5767 5767 5767 5768 5768 5768 5769 5770 5770 5771 5771 5771 5772
5706 5707 5708 5710 5711 5713 5715 5716 5718 5719 5721 5723 5725 5726 5728 5728 5728 5729 5731 5731 5733 5733 5733 5734 5736 5737 5738 5738 5738 5740 5742 5743 5744 5746 5747 5748 5749 5749 5749 5750 5750 5749 5748 5748 5750 5751 5749 5748 5748 5750 5753 5754 5753 5753 5754 5756 5756 5756 5757 5756 5755 5755 5755 5754 5754 5756 5758 5759 5760 5759 5760 5762 5764 5765 5765 5766 5766 5766 5767 5768 5769 5769 5769 5770 5770 5770
5703 5704 5706 5707 5709 5710 5712 5714 5716 5717 5719 5721 5722 5723 5725 5726 5726 5727 5729 5729 5730 5730 5730 5732 5733 5734 5734 5734 5736 5738 5739 5740 5742 5743 5744 5744 5745 5746 5746 5746 5746 5746 5746 5745 5746 5746 5746 5746 5745 5747 5750 5751 5750 5751 5752 5754 5753 5754 5753 5753 5753 5752 5751 5751 5751 5752 5754 5757 5758 5758 5758 5759 5761 5762 5763 5764 5764 5765 5766 5766 5767 5768 5768 5768 5768 5768
5701 5702 5703 5704 5706 5708 5709 5711 5713 5715 5717 5718 5719 5721 5722 5723 5724 5724 5726 5726 5727 5728 5728 5729 5730 5730 5731 5732 5733 5735 5736 5737 5738 5739 5740 5741 5741 5742 5742 5742 5743 5743 5743 5742 5742 5742 5743 5743 5743 5744 5745 5746 5747 5748 5748 5749 5749 5750 5750 5750 5750 5748 5748 5749 5749 5749 5751 5753 5755 5757 5757 5757 5758 5760 5761 5762 5763 5763 5764 5764 5765 5766 5766 5766 5766 5766
5699 5700 5701 5702 5703 5704 5706 5708 5710 5712 5714 5715 5716 5718 5719 5721 5721 5722 5723 5723 5724 5725 5725 5726 5727 5727 5729 5729 5730 5731 5732 5733 5734 5735 5735 5736 5737 5737 5738 5739 5739 5739 5740 5739 5739 5739 5739 5740 5740 5741 5742 5743 5744 5745 5745 5745 5745 5746 5747 5747 5746 5745 5745 5745 5745 5746 5748 5750 5753 5755 5755 5755 5756 5757 5759 5760 5761 5761 5761 5762 5762 5763 5763 5763 5763 5764
5696 5697 5698 5699 5700 5701 5704 5705 5706 5708 5711 5712 5713 5714 5716 5718 5718 5719 5720 5720 5721 5722 5722 5723 5724 5725 5726 5727 5727 5728 5728 5729 5730 5730 5731 5732 5732 5733 5734 5735 5736 5736 5736 5736 5736 5736 5736 5736 5736 5737 5739 5740 5740 5741 5741 5741 5741 5742 5743 5743 5743 5743 5743 5742 5742 5742 5744 5747 5750 5752 5753 5753 5754 5755 5756 5758 5758 5758 5758 5758 5759 5759 5760 5760 5760 5761
5693 5694 5694 5695 5697 5699 5701 5702 5703 5704 5706 5709 5711 5711 5714 5715 5715 5716 5717 5718 5719 5720 5720 5720 5721 5722 5723 5724 5724 5725 5725 5725 5726 5726 5727 5728 5728 5729 5730 5731 5732 5732 5733 5733 5732 5733 5733 5732 5732 5734 5735 5736 5736 5737 5738 5738 5738 5739 5739 5739 5739 5740 5741 5739 5738 5739 5741 5744 5747 5748 5750 5750 5751 5752 5754 5755 5755 5755 5755 5755 5756 5757 5757 5757 5757 5758
5689 5691 5691 5692 5694 5696 5698 5699 5701 5702 5702 5705 5707 5708 5710 5712 5712 5713 5714 5715 5716 5717 5717 5717 5719 5720 5720 5721 5721 5721 5722 5722 5723 5723 5724 5724 5725 5726 5727 5727 5728 5728 5729 5729 5729 5729 5729 5729 5729 5730 5732 5733 5733 5733 5734 5735 5735 5735 5736 5736 5736 5736 5737 5736 5735 5736 5738 5741 5742 5744 5746 5748 5748 5749 5751 5752 5752 5753 5753 5753 5754 5754 5754 5754 5754 5755
5686 5688 5688 5689 5691 5693 5694 5696 5698 5699 5700 5702 5704 5705 5707 5708 5710 5711 5711 5713 5714 5715 5715 5715 5716 5717 5717 5718 5718 5718 5719 5720 5720 5720 5721 5721 5721 5722 5723 5723 5724 5725 5726 5726 5726 5726 5726 5726 5726 5727 5729 5730 5730 5731 5732 5732 5731 5732 5733 5733 5732 5732 5732 5732 5733 5735 5737 5738 5739 5741 5743 5745 5746 5747 5748 5749 5750 5751 5751 5751 5752 5752 5752 5752 5752 5753
5682 5684 5686 5686 5688 5690 5691 5692 5694 5696 5697 5699 5700 5703 5704 5705 5707 5708 5709 5710 5711 5712 5713 5713 5714 5714 5714 5715 5716 5716 5717 5717 5717 5717 5718 5718 5718 5719 5719 5720 5721 5722 5723 5723 5723 5724 5724 5724 5724 5725 5726 5728 5729 5729 5729 5729 5728 5728 5729 5730 5730 5731 5731 5731 5732 5734 5735 5736 5737 5738 5740 5742 5743 5744 5745 5747 5747 5748 5749 5749 5749 5750 5750 5750 5750 5750
5678 5681 5682 5683 5685 5686 5687 5689 5691 5692 5694 5696 5698 5699 5701 5702 5704 5705 5706 5706 5707 5709 5710 5711 5712 5711 5711 5713 5713 5714 5715 5715 5715 5715 5716 5716 5716 5716 5717 5718 5719 5720 5720 5721 5721 5721 5722 5722 5723 5723 5723 5725 5726 5726 5727 5727 5726 5726 5727 5728 5729 5729 5729 5729 5730 5731 5733 5734 5735 5736 5738 5739 5740 5741 5743 5744 5745 5745 5746 5747 5747 5748 5748 5748 5748 5748
5675 5676 5678 5680 5681 5682 5684 5686 5688 5689 5691 5693 5694 5695 5697 5699 5700 5702 5703 5703 5704 5705 5707 5708 5709 5708 5709 5710 5711 5712 5713 5713 5713 5713 5713 5714 5714 5714 5715 5716 5717 5718 5718 5719 5719 5719 5719 5720 5721 5721 5721 5722 5723 5723 5724 5725 5725 5724 5725 5726 5726 5727 5727 5728 5729 5730 5731 5732 5733 5735 5736 5737 5738 5739 5740 5741 5742 5743 5744 5745 5745 5745 5745 5745 5745 5745
5671 5672 5674 5676 5677 5679 5681 5682 5683 5685 5687 5689 5690 5692 5694 5695 5697 5698 5700 5701 5701 5702 5704 5705 5706 5705 5706 5708 5709 5710 5710 5710 5711 5711 5711 5711 5712 5712 5712 5713 5714 5715 5716 5716 5716 5717 5717 5717 5718 5718 5719 5719 5720 5720 5721 5723 5723 5723 5723 5723 5723 5724 5725 5726 5727 5728 5729 5730 5731 5732 5733 5734 5735 5736 5737 5738 5739 5740 5741 5742 5742 5742 5742 5742 5742 5742
5667 5669 5671 5672 5674 5676 5677 5678 5679 5681 5683 5684 5686 5688 5690 5691 5693 5695 5696 5698 5698 5699 5700 5702 5702 5702 5703 5704 5706 5707 5708 5708 5709 5709 5709 5709 5709 5710 5710 5710 5711 5712 5713 5714 5714 5715 5715 5715 5715 5716 5716 5717 5717 5718 5719 5720 5721 5722 5722 5723 5723 5723 5724 5724 5725 5726 5727 5728 5729 5730 5731 5731 5732 5733 5734 5734 5735 5736 5737 5738 5739 5739 5738 5739 5739 5740
5663 5665 5667 5668 5670 5672 5672 5673 5674 5676 5678 5680 5683 5684 5686 5687 5689 5690 5693 5694 5694 5695 5696 5697 5698 5699 5699 5701 5703 5703 5704 5705 5706 5706 5706 5707 5707 5708 5708 5708 5709 5709 5710 5711 5711 5712 5713 5713 5714 5714 5715 5715 5716 5716 5717 5718 5718 5719 5720 5721 5722 5723 5723 5723 5724 5725 5725 5726 5726 5727 5728 5728 5729 5730 5731 5731 5732 5733 5734 5734 5735 5735 5736 5736 5736 5737
5660 5661 5663 5664 5666 5667 5667 5669 5670 5672 5674 5676 5678 5680 5681 5682 5684 5686 5688 5689 5690 5692 5693 5693 5694 5695 5696 5698 5699 5700 5701 5702 5703 5703 5704 5704 5705 5705 5706 5706 5706 5707 5708 5708 5709 5710 5711 5712 5712 5713 5713 5714 5714 5715 5715 5715 5716 5716 5717 5718 5719 5720 5721 5722 5722 5723 5723 5724 5724 5725 5725 5726 5727 5727 5728 5729 5729 5730 5731 5731 5732 5732 5733 5733 5733 5733
5657 5658 5659 5661 5662 5664 5664 5665 5667 5668 5671 5673 5674 5675 5677 5678 5680 5682 5684 5685 5686 5688 5689 5688 5690 5691 5692 5694 5696 5697 5698 5698 5699 5700 5700 5701 5702 5702 5703 5703 5704 5705 5705 5706 5706 5707 5707 5708 5709 5710 5711 5711 5712 5712 5713 5713 5713 5714 5714 5715 5716 5716 5717 5718 5719 5720 5721 5721 5722 5722 5723 5724 5724 5725 5726 5727 5727 5728 5728 5729 5729 5729 5729 5729 5729 5729
5655 5656 5657 5658 5659 5660 5661 5662 5664 5665 5667 5669 5671 5671 5673 5675 5677 5679 5680 5681 5683 5684 5685 5685 5687 5688 5689 5691 5692 5693 5694 5695 5696 5696 5697 5698 5699 5699 5700 5700 5701 5701 5702 5703 5703 5703 5704 5705 5705 5706 5708 5708 5709 5709 5710 5711 5711 5711 5712 5712 5712 5713 5714 5715 5716 5716 5718 5718 5719 5720 5720 5721 5722 5722 5723 5724 5724 5725 5725 5725 5726 5726 5725 5725 5726 5726
5652 5653 5654 5655 5656 5657 5658 5660 5661 5662 5663 5665 5667 5668 5669 5671 5673 5674 5676 5677 5678 5680 5681 5682 5683 5684 5686 5687 5688 5689 5690 5691 5692 5693 5693 5694 5695 5696 5696 5696 5696 5697 5698 5699 5699 5700 5700 5701 5701 5702 5703 5704 5705 5705 5706 5707 5708 5708 5708 5709 5709 5710 5710 5711 5712 5713 5714 5715 5715 5716 5717 5718 5718 5719 5719 5720 5720 5721 5721 5722 5722 5722 5722 5723 5724 5723
5649 5650 5651 5652 5653 5654 5655 5657 5658 5659 5660 5661 5663 5665 5666 5668 5669 5670 5672 5673 5674 5675 5677 5678 5679 5680 5681 5682 5683 5684 5685 5686 5687 5688 5689 5690 5691 5691 5691 5691 5692 5692 5693 5695 5695 5696 5696 5697 5697 5698 5699 5700 5700 5701 5702 5703 5704 5704 5705 5705 5705 5706 5706 5707 5708 5708 5709 5710 5711 5711 5712 5713 5714 5715 5715 5715 5716 5716 5717 5718 5718 5719 5718 5719 5720 5720
5645 5647 5648 5649 5650 5651 5652 5653 5654 5655 5656 5657 5660 5661 5662 5663 5665 5666 5667 5668 5669 5671 5672 5673 5674 5676 5676 5677 5678 5679 5680 5681 5682 5683 5685 5686 5687 5687 5687 5686 5687 5687 5688 5690 5691 5692 5692 5693 5693 5694 5694 5695 5695 5696 5696 5698 5699 5699 5700 5701 5701 5702 5702 5703 5703 5704 5704 5705 5706 5706 5707 5708 5709 5710 5711 5711 5711 5711 5712 5713 5714 5714 5714 5714 5715 5715
5641 5643 5644 5646 5647 5647 5648 5649 5650 5651 5652 5654 5656 5657 5658 5659 5660 5662 5663 5664 5665 5666 5667 5668 5670 5671 5672 5673 5674 5675 5676 5677 5678 5679 5680 5682 5683 5684 5683 5682 5681 5682 5684 5685 5686 5687 5687 5688 5689 5689 5689 5690 5690 5690 5691 5692 5692 5693 5694 5695 5695 5696 5697 5698 5699 5699 5700 5700 5701 5701 5702 5703 5704 5705 5706 5706 5707 5707 5708 5708 5709 5709 5710 5710 5710 5711
5638 5639 5641 5642 5643 5643 5645 5646 5646 5647 5650 5651 5653 5653 5654 5655 5656 5658 5659 5660 5661 5662 5663 5665 5666 5666 5667 5668 5669 5670 5671 5672 5673 5674 5675 5677 5678 5679 5679 5678 5677 5677 5678 5679 5680 5681 5682 5682 5683 5683 5684 5684 5684 5684 5685 5685 5686 5686 5687 5688 5689 5690 5691 5692 5693 5693 5694 5694 5695 5695 5696 5697 5698 5699 5700 5701 5701 5701 5702 5703 5703 5704 5705 5705 5705 5706
5635 5636 5637 5638 5639 5639 5641 5642 5643 5644 5646 5647 5648 5649 5650 5651 5652 5653 5654 5656 5657 5658 5659 5660 5661 5662 5663 5664 5665 5666 5667 5668 5669 5669 5671 5672 5673 5674 5675 5676 5675 5674 5674 5674 5674 5675 5675 5676 5677 5677 5677 5678 5678 5678 5678 5678 5679 5679 5680 5681 5683 5684 5684 5685 5686 5686 5687 5687 5688 5688 5689 5689 5690 5692 5693 5694 5695 5695 5696 5696 5697 5698 5698 5699 5699 5700
5631 5631 5632 5634 5635 5636 5637 5638 5639 5640 5641 5642 5643 5645 5646 5647 5648 5649 5650 5651 5652 5653 5654 5656 5657 5657 5658 5659 5660 5661 5662 5662 5663 5664 5666 5667 5668 5669 5670 5670 5671 5671 5671 5671 5671 5671 5671 5671 5672 5672 5672 5672 5672 5671 5671 5671 5672 5673 5673 5675 5676 5677 5677 5678 5678 5679 5680 5680 5681 5681 5682 5683 5684 5685 5687 5688 5689 5689 5690 5691 5691 5692 5692 5693 5693 5694
5626 5627 5628 5630 5630 5632 5633 5633 5634 5635 5635 5637 5640 5640 5641 5642 5642 5643 5644 5645 5646 5648 5649 5650 5651 5652 5653 5654 5654 5655 5656 5656 5657 5658 5660 5661 5662 5663 5663 5664 5665 5665 5666 5667 5668 5668 5667 5667 5668 5668 5668 5668 5668 5667 5666 5666 5666 5666 5667 5668 5670 5671 5672 5672 5672 5673 5674 5675 5676 5676 5677 5678 5679 5680 5681 5682 5683 5684 5685 5685 5686 5686 5687 5687 5687 5688
5621 5622 5624 5625 5626 5627 5629 5629 5630 5630 5630 5632 5634 5635 5636 5637 5637 5638 5638 5639 5641 5642 5643 5644 5645 5646 5647 5647 5648 5649 5649 5648 5650 5653 5654 5654 5655 5656 5657 5657 5658 5658 5659 5661 5661 5661 5661 5661 5662 5662 5663 5663 5663 5663 5662 5661 5661 5661 5661 5662 5663 5665 5666 5667 5668 5669 5670 5670 5671 5671 5672 5673 5674 5675 5675 5676 5677 5678 5679 5679 5680 5680 5681 5681 5681 5681
5616 5617 5619 5620 5621 5623 5624 5625 5625 5624 5625 5626 5628 5629 5630 5630 5631 5632 5632 5633 5636 5637 5637 5638 5638 5639 5640 5640 5641 5642 5642 5642 5644 5646 5646 5647 5648 5649 5650 5650 5651 5651 5652 5653 5654 5654 5654 5654 5655 5655 5656 5656 5656 5657 5658 5657 5657 5657 5657 5656 5657 5658 5660 5661 5662 5663 5664 5665 5665 5666 5667 5667 5668 5669 5669 5671 5671 5672 5672 5673 5673 5674 5674 5674 5674 5675
5612 5612 5614 5616 5618 5618 5619 5620 5619 5618 5619 5621 5621 5622 5624 5624 5625 5626 5626 5628 5630 5630 5630 5631 5631 5632 5633 5633 5634 5635 5635 5636 5638 5639 5639 5640 5641 5642 5643 5643 5644 5644 5644 5645 5646 5647 5647 5648 5648 5648 5648 5649 5649 5650 5651 5651 5651 5651 5651 5651 5651 5652 5653 5654 5655 5656 5657 5657 5658 5659 5660 5661 5662 5662 5663 5665 5666 5666 5667 5667 5667 5667 5667 5668 5668 5669
5606 5608 5609 5610 5612 5613 5614 5615 5614 5612 5614 5616 5616 5616 5617 5618 5618 5619 5620 5622 5624 5623 5624 5625 5625 5625 5626 5627 5627 5628 5628 5629 5631 5632 5632 5633 5634 5635 5635 5636 5636 5637 5637 5637 5638 5639 5640 5641 5641 5642 5642 5642 5642 5643 5643 5644 5643 5643 5644 5645 5645 5645 5646 5647 5647 5648 5649 5650 5650 5651 5652 5653 5654 5655 5656 5658 5659 5659 5660 5661 5662 5661 5661 5662 5662 5662
5601 5603 5604 5604 5606 5607 5608 5609 5608 5607 5609 5610 5610 5610 5611 5611 5612 5613 5615 5616 5617 5617 5617 5618 5619 5619 5620 5620 5621 5621 5622 5623 5624 5625 5626 5627 5627 5628 5629 5629 5629 5630 5630 5630 5631 5631 5632 5633 5634 5634 5635 5635 5635 5636 5636 5636 5636 5636 5636 5638 5638 5638 5639 5640 5641 5641 5642 5642 5643 5644 5644 5644 5646 5647 5648 5649 5650 5651 5652 5653 5654 5655 5655 5655 5655 5656
5596 5598 5599 5598 5599 5601 5602 5601 5601 5602 5603 5604 5604 5604 5605 5605 5606 5607 5608 5609 5610 5610 5611 5611 5612 5613 5613 5614 5614 5615 5615 5616 5617 5618 5619 5619 5620 5621 5621 5622 5622 5622 5623 5623 5623 5623 5624 5624 5625 5626 5626 5627 5628 5628 5628 5629 5629 5629 5629 5630 5630 5631 5632 5633 5633 5634 5635 5635 5636 5636 5636 5636 5637 5638 5639 5640 5641 5642 5643 5644 5645 5646 5647 5648 5648 5649
5590 5591 5593 5593 5593 5595 5595 5595 5596 5596 5597 5598 5598 5599 5599 5600 5601 5601 5602 5603 5603 5604 5604 5605 5606 5606 5606 5607 5607 5608 5608 5609 5610 5610 5611 5612 5612 5613 5613 5614 5614 5615 5615 5616 5616 5616 5616 5617 5617 5618 5618 5619 5619 5619 5620 5620 5621 5621 5621 5622 5622 5623 5624 5625 5625 5626 5627 5627 5628 5628 5629 5629 5629 5630 5631 5631 5632 5633 5634 5635 5637 5638 5639 5640 5641 5641
5585 5586 5587 5587 5588 5589 5589 5590 5591 5591 5591 5592 5593 5593 5594 5594 5595 5596 5596 5597 5597 5598 5598 5599 5599 5599 5600 5600 5601 5601 5602 5602 5603 5603 5604 5604 5605 5606 5606 5606 5607 5607 5608 5608 5609 5609 5609 5609 5609 5610 5610 5610 5611 5611 5611 5612 5612 5613 5613 5614 5614 5615 5616 5617 5618 5618 5619 5619 5620 5620 5621 5622 5622 5622 5623 5624 5625 5625 5626 5627 5628 5629 5631 5632 5633 5634
5581 5581 5582 5582 5583 5583 5584 5584 5585 5586 5586 5587 5587 5588 5588 5589 5589 5590 5590 5591 5591 5592 5592 5592 5593 5593 5593 5594 5594 5594 5595 5596 5596 5596 5597 5597 5598 5599 5599 5600 5600 5600 5601 5601 5602 5602 5602 5602 5602 5602 5602 5603 5603 5603 5604 5604 5604 5605 5606 5606 5607 5607 5608 5609 5610 5611 5611 5611 5612 5612 5613 5613 5614 5615 5616 5616 5617 5618 5618 5619 5620 5621 5622 5624 5624 5625
5577 5578 5578 5578 5578 5579 5579 5580 5580 5581 5581 5582 5583 5583 5583 5584 5585 5585 5585 5586 5586 5587 5587 5587 5587 5587 5587 5587 5588 5588 5588 5589 5589 5590 5590 5591 5591 5592 5592 5593 5593 5594 5594 5594 5594 5594 5594 5594 5594 5595 5595 5595 5595 5595 5596 5596 5596 5597 5597 5598 5599 5599 5600 5601 5602 5602 5603 5603 5604 5604 5605 5605 5606 5607 5608 5608 5609 5610 5611 5612 5613 5614 5615 5616 5616 5617
5575 5575 5575 5575 5575 5575 5576 5576 5576 5577 5577 5577 5578 5578 5579 5579 5580 5580 5580 5581 5581 5582 5582 5582 5582 5582 5582 5582 5582 5582 5582 5583 5583 5583 5584 5584 5585 5585 5585 5586 5586 5586 5586 5586 5585 5585 5586 5586 5587 5587 5588 5588 5588 5587 5587 5587 5587 5588 5589 5589 5590 5590 5591 5592 5593 5593 5593 5594 5594 5595 5595 5596 5597 5598 5599 5599 5600 5601 5602 5603 5605 5606 5607 5608 5609 5609
5572 5572 5573 5573 5573 5573 5573 5573 5573 5573 5573 5573 5574 5574 5574 5574 5575 5575 5575 5576 5576 5576 5576 5577 5577 5577 5577 5577 5577 5577 5576 5576 5577 5577 5576 5577 5577 5578 5578 5578 5578 5578 5578 5577 5577 5578 5578 5579 5579 5579 5579 5579 5579 5579 5579 5578 5578 5579 5579 5579 5579 5580 5580 5581 5582 5582 5583 5583 5583 5584 5585 5585 5586 5586 5587 5588 5589 5590 5592 5593 5595 5596 5596 5598 5601 5600
5570 5570 5570 5570 5570 5570 5570 5570 5570 5570 5570 5570 5570 5570 5570 5570 5570 5571 5571 5571 5571 5571 5571 5571 5571 5571 5571 5571 5571 5571 5570 5570 5570 5570 5570 5569 5570 5570 5570 5571 5570 5570 5570 5570 5570 5570 5571 5571 5570 5570 5570 5570 5569 5569 5569 5569 5569 5569 5568 5568 5568 5569 5569 5570 5571 5572 5572 5571 5571 5572 5574 5575 5575 5575 5576 5577 5578 5579 5580 5581 5583 5585 5585 5587 5590 5590